Weather History for Durango, CO

Change the Weather History Date:

Tuesday, September 3, 2013

  Actual Average Record
Temperature  
Mean Temperature 69 °F 63 °F  
Max Temperature 84 °F 79 °F 90 °F (1990)
Min Temperature 54 °F 47 °F 29 °F (1973)
Degree Days  
Heating Degree Days 0 3  
Month to date heating degree days 0 7  
Since 1 July heating degree days 13 36  
Cooling Degree Days 4 1  
Month to date cooling degree days 16 3  
Year to date cooling degree days 365 240  
Growing Degree Days 19 (Base 50)    
Moisture  
Dew Point 52 °F    
Average Humidity 56    
Maximum Humidity 78    
Minimum Humidity 33    
Precipitation  
Precipitation 0.75 in 0.06 in 0.75 in (2013)
Month to date precipitation 0.76 0.18  
Year to date precipitation 8.97 10.15  
Sea Level Pressure  
Sea Level Pressure 30.12 in    
Wind  
Wind Speed 5 mph (NNW)    
Max Wind Speed 21 mph    
Max Gust Speed 26 mph    
Visibility 8 miles    
Events Rain , Thunderstorm    
T = Trace of Precipitation, MM = Missing Value Source: NWS Daily Summary

Daily Weather History Graph

Daily Weather History Graph

Search for Another Location

Airport:

Trip Planner

Search our weather history database for the weather conditions in past years. The results will help you decide how hot, cold, wet, or windy it might be!

Date:

Astronomy

Sep. 03, 2013 Rise Set
Actual Time 6:43 AM MDT 7:36 PM MDT
Civil Twilight 6:17 AM MDT 8:02 PM MDT
Nautical Twilight 5:45 AM MDT 8:34 PM MDT
Astronomical Twilight 5:13 AM MDT 9:06 PM MDT
Moon 5:01 AM MDT (9/3) 6:24 PM MDT (9/3)
Length of Visible Light 13h 45m
Length of Day
12h 52m
Waning Crescent, 3% of the Moon is Illuminated
Sep 3
Waning Crescent
Sep 5
New
Sep 12
First Quarter
Sep 19
Full
Sep 26
Last Quarter

Hourly Weather History & Observations

Time (MDT) Temp. Dew Point Humidity Pressure Visibility Wind Dir Wind Speed Gust Speed Precip Events Conditions
12:53 AM 61.0 °F 46.9 °F 60% 30.02 in 10.0 mi NNE 3.5 mph - N/A   Clear
1:53 AM 57.0 °F 46.0 °F 67% 30.04 in 10.0 mi NE 5.8 mph - N/A   Clear
2:53 AM 60.1 °F 46.9 °F 62% 30.04 in 10.0 mi NNE 3.5 mph - N/A   Clear
3:53 AM 59.0 °F 46.9 °F 64% 30.04 in 10.0 mi Calm Calm - N/A   Mostly Cloudy
4:53 AM 57.0 °F 46.9 °F 69% 30.04 in 10.0 mi NE 3.5 mph - N/A   Clear
5:53 AM 57.9 °F 48.0 °F 70% 30.05 in 10.0 mi North 4.6 mph - N/A   Clear
6:53 AM 59.0 °F 48.0 °F 67% 30.05 in 10.0 mi Calm Calm - N/A   Partly Cloudy
7:53 AM 63.0 °F 48.0 °F 58% 30.06 in 10.0 mi Calm Calm - N/A   Clear
8:53 AM 66.0 °F 48.9 °F 54% 30.09 in 10.0 mi Calm Calm - N/A   Clear
9:53 AM 68.0 °F 48.9 °F 50% 30.10 in 10.0 mi WSW 3.5 mph - N/A   Clear
10:53 AM 75.0 °F 51.1 °F 43% 30.10 in 10.0 mi Calm Calm - N/A   Clear
11:53 AM 79.0 °F 52.0 °F 39% 30.07 in 10.0 mi North 4.6 mph - N/A   Clear
12:53 PM 80.1 °F 51.1 °F 36% 30.04 in 10.0 mi Calm Calm - N/A   Clear
1:53 PM 81.0 °F 50.0 °F 34% 30.04 in 10.0 mi West 4.6 mph - N/A   Clear
2:53 PM 81.0 °F 48.0 °F 31% 29.99 in 10.0 mi Calm Calm - N/A   Scattered Clouds
3:53 PM 77.0 °F 50.0 °F 39% 30.01 in 10.0 mi NNW 20.7 mph 26.5 mph 0.00 in   Mostly Cloudy
4:08 PM 73.4 °F 53.6 °F 50% 30.26 in 10.0 mi NW 19.6 mph 25.3 mph 0.00 in Rain Light Rain
4:28 PM 68.0 °F 57.2 °F 68% 30.28 in 1.8 mi WNW 19.6 mph 24.2 mph 0.16 in Rain , Thunderstorm Heavy Thunderstorms and Rain
4:31 PM 66.2 °F 57.2 °F 73% 30.28 in 0.8 mi WNW 16.1 mph 24.2 mph 0.29 in Rain , Thunderstorm Heavy Thunderstorms and Rain
4:41 PM 66.2 °F 55.4 °F 68% 30.28 in 1.5 mi North 12.7 mph 26.5 mph 0.44 in Rain , Thunderstorm Heavy Thunderstorms and Rain
4:48 PM 66.2 °F 57.2 °F 73% 30.28 in 3.0 mi NNW 9.2 mph 19.6 mph 0.49 in Rain , Thunderstorm Heavy Thunderstorms and Rain
4:49 PM 66.0 °F 57.0 °F 73% 30.06 in 3.0 mi NNW 8.1 mph 19.6 mph 0.49 in Rain , Thunderstorm Heavy Thunderstorms and Rain
5:05 PM 66.2 °F 53.6 °F 64% 30.28 in 2.0 mi North 12.7 mph 19.6 mph 0.18 in Rain Heavy Rain
5:13 PM 66.2 °F 55.4 °F 68% 30.28 in 3.0 mi NNW 12.7 mph - 0.24 in Rain , Thunderstorm Light Thunderstorms and Rain
5:24 PM 68.0 °F 57.2 °F 68% 30.27 in 9.0 mi North 12.7 mph - 0.25 in Rain , Thunderstorm Light Thunderstorms and Rain
5:31 PM 71.6 °F 55.4 °F 57% 30.27 in 10.0 mi NNE 13.8 mph 18.4 mph 0.25 in Rain Light Rain
5:53 PM 70.0 °F 55.9 °F 61% 30.05 in 10.0 mi North 13.8 mph - 0.25 in   Overcast
6:53 PM 72.0 °F 55.0 °F 55% 30.03 in 10.0 mi ENE 8.1 mph - 0.00 in Rain Light Rain
7:40 PM 71.6 °F 53.6 °F 53% 30.27 in 10.0 mi Calm Calm - 0.00 in Thunderstorm Overcast
7:53 PM 69.1 °F 57.9 °F 68% 30.04 in 10.0 mi West 4.6 mph - 0.01 in Rain , Thunderstorm Light Rain
8:08 PM 69.8 °F 51.8 °F 53% 30.28 in 10.0 mi Calm Calm - 0.00 in   Overcast
8:53 PM 66.9 °F 57.0 °F 70% 30.06 in 10.0 mi ENE 4.6 mph - 0.00 in   Mostly Cloudy
9:53 PM 66.0 °F 55.0 °F 68% 30.07 in 10.0 mi SSW 3.5 mph - N/A   Clear
10:53 PM 64.0 °F 55.0 °F 73% 30.05 in 10.0 mi North 10.4 mph - N/A   Clear
11:53 PM 61.0 °F 53.1 °F 75% 30.04 in 10.0 mi Calm Calm - N/A   Clear